Back to catalog

FENGYUN 1C DEB

AliveSSO
NORAD 29914·DEBRIS·🇨🇳 China

Launched May 10, 1999 from Taiyuan Satellite Launch Center

Loading…

Next Passes (next 24 hours)

TLE

FreshSource: Space-Track

Epoch: Sep 14, 2026, 07:33 UTC

1 29914U 99025HL  26257.31473473  .00000162  00000-0  13022-3 0  9994
2 29914  98.8182 282.7488 0036338  67.1392 356.7384 14.03234592  6503

Track FENGYUN 1C DEB in real time with AllMySat

Download on the App Store